,,,PA_Meas_PMT16A,,PR_Meas_QMR101_102,,RH_Meas_QMH101,,SR_Meas_QMS101,,TA_Meas_QMH101,,GenWind,,GenWind,
date,time,status,PA,status,PR,status,RH,status,SR,status,TA,status,DirAvg,status,SpdAvg,
2008-08-12, 06:39:04,VALID,1005.39,VALID,0,VALID,96.1163,VALID,32.9846,VALID,23.2559,VALID,46,VALID,0.0371094,
2008-08-12, 06:40:04,VALID,1005.47,VALID,0,VALID,96.1697,VALID,34.9959,VALID,23.3143,VALID,46,VALID,0.216406,
2008-08-12, 06:41:04,VALID,1004.57,VALID,0,VALID,96.1926,VALID,37.1077,VALID,23.3337,VALID,46,VALID,0,
2008-08-12, 06:42:04,VALID,1004.76,VALID,0,VALID,96.1773,VALID,39.2195,VALID,23.3939,VALID,46,VALID,0,
2008-08-12, 06:43:04,VALID,1004.59,VALID,0,VALID,96.2002,VALID,41.5325,VALID,23.4116,VALID,46,VALID,0,
2008-08-12, 06:44:04,VALID,1004.54,VALID,0,VALID,96.2078,VALID,43.946,VALID,23.4311,VALID,46,VALID,0,
2008-08-12, 06:45:04,VALID,1004.58,VALID,0,VALID,96.1849,VALID,46.3595,VALID,23.4912,VALID,46,VALID,0,
2008-08-12, 06:46:04,VALID,1004.59,VALID,0,VALID,96.2002,VALID,48.8736,VALID,23.5089,VALID,46,VALID,0,
2008-08-12, 06:47:04,VALID,1004.56,VALID,0,VALID,96.2078,VALID,51.4882,VALID,23.5691,VALID,46,VALID,0,
2008-08-12, 06:48:04,VALID,1004.61,VALID,0,VALID,96.2231,VALID,54.2034,VALID,23.5868,VALID,46,VALID,0,
2008-08-12, 06:49:04,VALID,1004.59,VALID,0,VALID,96.1926,VALID,56.7175,VALID,23.6452,VALID,46,VALID,0,
2008-08-12, 06:50:04,VALID,1004.64,VALID,0,VALID,96.2231,VALID,59.2316,VALID,23.6841,VALID,46,VALID,0,
2008-08-12, 06:51:04,VALID,1004.67,VALID,0,VALID,96.2307,VALID,61.6451,VALID,23.7017,VALID,46,VALID,0,
2008-08-12, 06:52:04,VALID,1004.68,VALID,0,VALID,96.2231,VALID,64.1592,VALID,23.7619,VALID,47,VALID,0.103125,
2008-08-12, 06:53:04,VALID,1004.71,VALID,0,VALID,96.2154,VALID,66.5727,VALID,23.7814,VALID,47,VALID,0.0464844,
2008-08-12, 06:54:04,VALID,1004.74,VALID,0,VALID,96.1926,VALID,68.7851,VALID,23.8203,VALID,47,VALID,0.229687,
2008-08-12, 06:55:04,VALID,1004.73,VALID,0,VALID,96.2002,VALID,70.9974,VALID,23.8805,VALID,47,VALID,0.00585938,
2008-08-12, 06:56:04,VALID,1004.72,VALID,0,VALID,96.2154,VALID,73.0087,VALID,23.8982,VALID,47,VALID,0.142188,
2008-08-12, 06:57:04,VALID,1004.73,VALID,0,VALID,96.1926,VALID,74.6177,VALID,23.9371,VALID,47,VALID,0.199609,
2008-08-12, 06:58:04,VALID,1004.76,VALID,0,VALID,96.1926,VALID,76.1262,VALID,23.9761,VALID,47,VALID,0.360938,
2008-08-12, 06:59:04,VALID,1004.74,VALID,0,VALID,96.1773,VALID,77.6346,VALID,23.9955,VALID,47,VALID,0.34375,
2008-08-12, 07:00:04,VALID,1004.75,VALID,0,VALID,96.1544,VALID,79.0425,VALID,24.0345,VALID,34,VALID,0.644141,
2008-08-12, 07:01:04,VALID,1004.78,VALID,0,VALID,96.1392,VALID,80.5509,VALID,24.0734,VALID,33,VALID,0.195313,
2008-08-12, 07:02:04,VALID,1004.79,VALID,0,VALID,96.1086,VALID,81.8582,VALID,24.1123,VALID,36,VALID,0.028125,
2008-08-12, 07:03:04,VALID,1004.81,VALID,0,VALID,96.1086,VALID,83.065,VALID,24.1123,VALID,36,VALID,0.521094,
2008-08-12, 07:04:04,VALID,1004.8,VALID,0,VALID,96.0781,VALID,84.0706,VALID,24.1513,VALID,36,VALID,0.253906,
2008-08-12, 07:05:04,VALID,1004.8,VALID,0,VALID,96.04,VALID,85.0762,VALID,24.2115,VALID,37,VALID,0.202344,
2008-08-12, 07:06:04,VALID,1004.82,VALID,0,VALID,96.0247,VALID,85.9813,VALID,24.2699,VALID,37,VALID,0.0789063,
2008-08-12, 07:07:04,VALID,1004.82,VALID,0,VALID,96.0018,VALID,87.0875,VALID,24.2894,VALID,52,VALID,0.384766,
2008-08-12, 07:08:04,VALID,1004.87,VALID,0,VALID,95.9255,VALID,88.0931,VALID,24.3088,VALID,72,VALID,0.313672,
2008-08-12, 07:09:04,VALID,1004.89,VALID,0,VALID,95.8798,VALID,89.2999,VALID,24.3673,VALID,72,VALID,0.289453,
2008-08-12, 07:10:04,VALID,1004.91,VALID,0,VALID,95.834,VALID,90.5067,VALID,24.4062,VALID,72,VALID,0.360156,
2008-08-12, 07:11:04,VALID,1004.92,VALID,0,VALID,95.7653,VALID,91.814,VALID,24.4433,VALID,72,VALID,0.104297,
2008-08-12, 07:12:04,VALID,1004.95,VALID,0,VALID,95.7119,VALID,92.9202,VALID,24.4841,VALID,68,VALID,0.362891,
2008-08-12, 07:13:04,VALID,1004.95,VALID,0,VALID,95.6585,VALID,94.1269,VALID,24.523,VALID,52,VALID,0.154687,
2008-08-12, 07:14:04,VALID,1004.95,VALID,0,VALID,95.5975,VALID,95.3337,VALID,24.562,VALID,52,VALID,0.152734,
2008-08-12, 07:15:04,VALID,1005.01,VALID,0,VALID,95.5441,VALID,96.5404,VALID,24.5796,VALID,52,VALID,0.292578,
2008-08-12, 07:16:04,VALID,1005.04,VALID,0,VALID,95.4449,VALID,97.8477,VALID,24.6009,VALID,40,VALID,0.269922,
2008-08-12, 07:17:04,VALID,1005.05,VALID,0,VALID,95.4297,VALID,99.1551,VALID,24.6398,VALID,40,VALID,0.208594,
2008-08-12, 07:18:04,VALID,1005.05,VALID,0,VALID,95.3839,VALID,100.563,VALID,24.6788,VALID,40,VALID,0.176563,
2008-08-12, 07:19:04,VALID,1005.05,VALID,0,VALID,95.0787,VALID,102.172,VALID,24.6593,VALID,32,VALID,0.628516,
2008-08-12, 07:20:04,VALID,1005.04,VALID,0,VALID,95.1093,VALID,103.882,VALID,24.7159,VALID,32,VALID,0.214844,
2008-08-12, 07:21:04,VALID,1005.05,VALID,0,VALID,94.9643,VALID,105.692,VALID,24.7372,VALID,29,VALID,0.202344,
2008-08-12, 07:22:04,VALID,1005.06,VALID,0,VALID,94.8728,VALID,107.703,VALID,24.7761,VALID,29,VALID,0.416797,
2008-08-12, 07:23:04,VALID,1005.06,VALID,0,VALID,94.6286,VALID,109.815,VALID,24.7743,VALID,29,VALID,0.479688,
2008-08-12, 07:24:04,VALID,1005.12,VALID,0,VALID,94.4837,VALID,112.027,VALID,24.8346,VALID,53,VALID,0.504687,
2008-08-12, 07:25:04,VALID,1005.14,VALID,0,VALID,94.3235,VALID,114.24,VALID,24.8735,VALID,52,VALID,0.304297,
2008-08-12, 07:26:04,VALID,1005.12,VALID,0,VALID,94.3387,VALID,116.854,VALID,24.9319,VALID,52,VALID,0.19375,
2008-08-12, 07:27:04,VALID,1005.12,VALID,0,VALID,94.0412,VALID,119.67,VALID,24.9728,VALID,24,VALID,0.433203,
2008-08-12, 07:28:04,VALID,1005.13,VALID,0,VALID,93.9954,VALID,122.687,VALID,25.0098,VALID,24,VALID,0,
2008-08-12, 07:29:04,VALID,1005.15,VALID,0,VALID,93.8047,VALID,125.905,VALID,25.0079,VALID,24,VALID,0.225,
2008-08-12, 07:30:04,VALID,1005.16,VALID,0,VALID,93.7666,VALID,128.922,VALID,25.0682,VALID,24,VALID,0.546094,
2008-08-12, 07:31:04,VALID,1005.16,VALID,0,VALID,93.5224,VALID,131.838,VALID,25.1072,VALID,18,VALID,0.605078,
2008-08-12, 07:32:04,VALID,1005.2,VALID,0,VALID,93.3622,VALID,134.754,VALID,25.148,VALID,18,VALID,0.652344,
2008-08-12, 07:33:04,VALID,1005.21,VALID,0,VALID,93.2173,VALID,137.268,VALID,25.148,VALID,18,VALID,0.432422,
2008-08-12, 07:34:04,VALID,1005.22,VALID,0,VALID,93.0647,VALID,139.581,VALID,25.1461,VALID,18,VALID,0.324609,
2008-08-12, 07:35:04,VALID,1005.25,VALID,0,VALID,93.1791,VALID,141.492,VALID,25.226,VALID,18,VALID,0.398438,
2008-08-12, 07:36:04,VALID,1005.24,VALID,0,VALID,93.2707,VALID,143.202,VALID,25.224,VALID,18,VALID,0.407422,
2008-08-12, 07:37:04,VALID,1005.27,VALID,0,VALID,92.9426,VALID,144.408,VALID,25.2825,VALID,18,VALID,0.283594,
2008-08-12, 07:38:04,VALID,1005.29,VALID,0,VALID,92.8282,VALID,145.414,VALID,25.3,VALID,18,VALID,0.475781,
2008-08-12, 07:39:04,VALID,1005.32,VALID,0,VALID,92.7824,VALID,146.017,VALID,25.339,VALID,18,VALID,0.439844,
2008-08-12, 07:40:04,VALID,1005.3,VALID,0,VALID,92.1187,VALID,146.219,VALID,25.3409,VALID,18,VALID,0.500391,
2008-08-12, 07:41:04,VALID,1005.35,VALID,0,VALID,91.9204,VALID,146.118,VALID,25.3798,VALID,18,VALID,0.452734,
2008-08-12, 07:42:04,VALID,1005.36,VALID,0,VALID,91.8899,VALID,145.816,VALID,25.4188,VALID,16,VALID,0.623438,
2008-08-12, 07:43:04,VALID,1005.36,VALID,0,VALID,91.7297,VALID,145.313,VALID,25.4169,VALID,15,VALID,0.540625,
2008-08-12, 07:44:04,VALID,1005.38,VALID,0,VALID,91.2109,VALID,144.71,VALID,25.4363,VALID,2,VALID,0.794531,
2008-08-12, 07:45:04,VALID,1005.41,VALID,0,VALID,90.715,VALID,143.704,VALID,25.4169,VALID,17,VALID,0.766016,
2008-08-12, 07:46:04,VALID,1005.43,VALID,0,VALID,90.6082,VALID,142.498,VALID,25.4753,VALID,352,VALID,0.628906,
2008-08-12, 07:47:04,VALID,1005.44,VALID,0,VALID,90.6311,VALID,140.889,VALID,25.4967,VALID,351,VALID,0.442969,
2008-08-12, 07:48:04,VALID,1005.5,VALID,0,VALID,90.3183,VALID,139.179,VALID,25.4948,VALID,354,VALID,0.737891,
2008-08-12, 07:49:04,VALID,1005.5,VALID,0,VALID,89.4486,VALID,137.168,VALID,25.5162,VALID,3,VALID,0.642187,
2008-08-12, 07:50:04,VALID,1005.47,VALID,0,VALID,89.1816,VALID,135.157,VALID,25.5142,VALID,353,VALID,0.658594,
2008-08-12, 07:51:04,VALID,1005.47,VALID,0,VALID,89.3494,VALID,133.145,VALID,25.5941,VALID,352,VALID,0.757031,
2008-08-12, 07:52:04,VALID,1005.49,VALID,0,VALID,88.2585,VALID,131.235,VALID,25.5746,VALID,354,VALID,0.770312,
2008-08-12, 07:53:04,VALID,1005.53,VALID,0,VALID,88.8765,VALID,129.827,VALID,25.5727,VALID,357,VALID,0.626953,
2008-08-12, 07:54:04,VALID,1005.53,VALID,0,VALID,87.7626,VALID,128.721,VALID,25.6136,VALID,27,VALID,1.00078,
2008-08-12, 07:55:04,VALID,1005.52,VALID,0,VALID,88.4187,VALID,128.419,VALID,25.633,VALID,351,VALID,0.83125,
2008-08-12, 07:56:04,VALID,1005.55,VALID,0,VALID,88.0449,VALID,128.721,VALID,25.6525,VALID,346,VALID,0.988672,
2008-08-12, 07:57:04,VALID,1005.56,VALID,0,VALID,88.2127,VALID,129.726,VALID,25.6525,VALID,347,VALID,0.774609,
2008-08-12, 07:58:04,VALID,1005.58,VALID,0,VALID,88.5179,VALID,131.436,VALID,25.6525,VALID,357,VALID,0.760156,
2008-08-12, 07:59:04,VALID,1005.61,VALID,0,VALID,88.5103,VALID,133.749,VALID,25.6525,VALID,353,VALID,0.844531,
2008-08-12, 08:00:04,VALID,1005.61,VALID,0,VALID,88.6171,VALID,136.564,VALID,25.672,VALID,357,VALID,0.827734,
2008-08-12, 08:01:04,VALID,1005.61,VALID,0,VALID,88.2127,VALID,139.682,VALID,25.633,VALID,359,VALID,0.866797,
2008-08-12, 08:02:04,VALID,1005.64,VALID,0,VALID,87.7245,VALID,143.101,VALID,25.6545,VALID,355,VALID,1.10352,
2008-08-12, 08:03:04,VALID,1005.61,VALID,0,VALID,87.7932,VALID,146.319,VALID,25.6525,VALID,347,VALID,1.0793,
2008-08-12, 08:04:04,VALID,1005.65,VALID,0,VALID,87.816,VALID,149.336,VALID,25.6545,VALID,4,VALID,0.830078,
2008-08-12, 08:05:04,VALID,1005.64,VALID,0,VALID,88.0907,VALID,152.353,VALID,25.6525,VALID,358,VALID,1.09766,
2008-08-12, 08:06:04,VALID,1005.63,VALID,0,VALID,87.7855,VALID,154.867,VALID,25.672,VALID,2,VALID,0.810938,
2008-08-12, 08:07:04,VALID,1005.68,VALID,0,VALID,88.1975,VALID,156.979,VALID,25.672,VALID,2,VALID,0.761328,
2008-08-12, 08:08:04,VALID,1005.67,VALID,0,VALID,88.2204,VALID,158.688,VALID,25.672,VALID,7,VALID,0.852734,
2008-08-12, 08:09:04,VALID,1005.68,VALID,0,VALID,88.3501,VALID,160.498,VALID,25.7109,VALID,7,VALID,0.753906,
2008-08-12, 08:10:04,VALID,1005.66,VALID,0,VALID,88.7086,VALID,162.61,VALID,25.7499,VALID,11,VALID,0.650781,
2008-08-12, 08:11:04,VALID,1005.67,VALID,0,VALID,87.6558,VALID,164.521,VALID,25.7694,VALID,38,VALID,1.02891,
2008-08-12, 08:12:04,VALID,1005.69,VALID,0,VALID,87.8389,VALID,165.828,VALID,25.8493,VALID,18,VALID,0.921484,
2008-08-12, 08:13:04,VALID,1005.68,VALID,0,VALID,87.8923,VALID,167.035,VALID,25.8687,VALID,1,VALID,0.578516,
2008-08-12, 08:14:04,VALID,1005.71,VALID,0,VALID,88.3653,VALID,169.147,VALID,25.9057,VALID,3,VALID,0.432813,
2008-08-12, 08:15:04,VALID,1005.75,VALID,0,VALID,87.7016,VALID,171.862,VALID,25.9252,VALID,44,VALID,0.842578,
2008-08-12, 08:16:04,VALID,1005.74,VALID,0,VALID,88.1365,VALID,175.08,VALID,25.9836,VALID,54,VALID,0.330469,
2008-08-12, 08:17:04,VALID,1005.74,VALID,0,VALID,88.0983,VALID,178.801,VALID,26.0635,VALID,65,VALID,0.510547,
2008-08-12, 08:18:04,VALID,1005.75,VALID,0,VALID,87.3125,VALID,182.421,VALID,26.0616,VALID,89,VALID,0.438672,
2008-08-12, 08:19:04,VALID,1005.74,VALID,0,VALID,87.8923,VALID,185.639,VALID,26.122,VALID,38,VALID,0.589844,
2008-08-12, 08:20:04,VALID,1005.79,VALID,0,VALID,87.2286,VALID,187.952,VALID,26.12,VALID,39,VALID,0.608594,
2008-08-12, 08:21:04,VALID,1005.78,VALID,0,VALID,86.9464,VALID,189.461,VALID,26.1609,VALID,70,VALID,0.354297,
2008-08-12, 08:22:04,VALID,1005.79,VALID,0,VALID,87.5795,VALID,189.963,VALID,26.1979,VALID,41,VALID,0.420312,
2008-08-12, 08:23:04,VALID,1005.82,VALID,0,VALID,87.1523,VALID,189.36,VALID,26.2389,VALID,70,VALID,0.572266,
2008-08-12, 08:24:04,VALID,1005.82,VALID,0,VALID,87.2744,VALID,187.65,VALID,26.2584,VALID,66,VALID,0.336719,
2008-08-12, 08:25:04,VALID,1005.83,VALID,0,VALID,86.8014,VALID,185.136,VALID,26.2584,VALID,109,VALID,0.379297,
2008-08-12, 08:26:04,VALID,1005.85,VALID,0,VALID,86.9921,VALID,182.019,VALID,26.2564,VALID,81,VALID,0.578125,
2008-08-12, 08:27:04,VALID,1005.85,VALID,0,VALID,86.0233,VALID,179.002,VALID,26.2973,VALID,38,VALID,0.866016,
2008-08-12, 08:28:04,VALID,1005.85,VALID,0,VALID,86.6031,VALID,175.784,VALID,26.2973,VALID,57,VALID,0.586328,
2008-08-12, 08:29:04,VALID,1005.84,VALID,0,VALID,86.0843,VALID,172.868,VALID,26.2973,VALID,77,VALID,0.998047,
2008-08-12, 08:30:04,VALID,1005.9,VALID,0,VALID,87.16,VALID,170.454,VALID,26.2973,VALID,60,VALID,0.527734,
2008-08-12, 08:31:04,VALID,1005.9,VALID,0,VALID,87.1371,VALID,168.644,VALID,26.3363,VALID,60,VALID,0.143359,
2008-08-12, 08:32:04,VALID,1005.91,VALID,0,VALID,87.1371,VALID,167.035,VALID,26.3363,VALID,80,VALID,0.344141,
2008-08-12, 08:33:04,VALID,1005.92,VALID,0,VALID,87.3507,VALID,165.828,VALID,26.3753,VALID,81,VALID,0.276563,
2008-08-12, 08:34:04,VALID,1005.93,VALID,0,VALID,86.9769,VALID,164.722,VALID,26.3947,VALID,84,VALID,0.487891,
2008-08-12, 08:35:04,VALID,1005.96,VALID,0,VALID,87.16,VALID,163.817,VALID,26.4142,VALID,80,VALID,0.527734,
2008-08-12, 08:36:04,VALID,1005.98,VALID,0,VALID,86.0614,VALID,163.113,VALID,26.3947,VALID,54,VALID,0.966016,
2008-08-12, 08:37:04,VALID,1005.95,VALID,0,VALID,85.5884,VALID,162.51,VALID,26.3343,VALID,37,VALID,0.811328,
2008-08-12, 08:38:04,VALID,1005.97,VALID,0,VALID,86.008,VALID,162.107,VALID,26.3343,VALID,89,VALID,0.819922,
2008-08-12, 08:39:04,VALID,1005.93,VALID,0,VALID,86.5725,VALID,161.906,VALID,26.3148,VALID,91,VALID,0.829297,
2008-08-12, 08:40:04,VALID,1005.95,VALID,0,VALID,86.481,VALID,162.107,VALID,26.2739,VALID,77,VALID,0.694922,
2008-08-12, 08:41:04,VALID,1005.96,VALID,0,VALID,86.9464,VALID,162.007,VALID,26.2953,VALID,80,VALID,0.209375,
2008-08-12, 08:42:04,VALID,1005.96,VALID,0,VALID,86.6717,VALID,162.107,VALID,26.3343,VALID,74,VALID,0.444141,
2008-08-12, 08:43:04,VALID,1005.96,VALID,0,VALID,86.9311,VALID,162.309,VALID,26.3323,VALID,69,VALID,0.195313,
2008-08-12, 08:44:04,VALID,1005.95,VALID,0,VALID,86.8853,VALID,162.711,VALID,26.3927,VALID,37,VALID,0.508203,
2008-08-12, 08:45:04,VALID,1005.97,VALID,0,VALID,86.7938,VALID,163.314,VALID,26.3927,VALID,56,VALID,0.525,
2008-08-12, 08:46:04,VALID,1005.97,VALID,0,VALID,86.5573,VALID,163.918,VALID,26.3927,VALID,25,VALID,0.559375,
2008-08-12, 08:47:04,VALID,1005.98,VALID,0,VALID,86.1529,VALID,164.622,VALID,26.3538,VALID,26,VALID,1.17422,
2008-08-12, 08:48:04,VALID,1005.96,VALID,0,VALID,87.0608,VALID,165.225,VALID,26.3733,VALID,70,VALID,0.346484,
2008-08-12, 08:49:04,VALID,1006.01,VALID,0,VALID,86.687,VALID,166.13,VALID,26.3733,VALID,75,VALID,0.546094,
2008-08-12, 08:50:04,VALID,1006,VALID,0,VALID,86.7785,VALID,167.035,VALID,26.3538,VALID,75,VALID,0.314453,
2008-08-12, 08:51:04,VALID,1005.96,VALID,0,VALID,86.5573,VALID,167.84,VALID,26.3733,VALID,75,VALID,0.0683594,
2008-08-12, 08:52:04,VALID,1006.01,VALID,0,VALID,86.9921,VALID,168.745,VALID,26.4122,VALID,75,VALID,0.326953,
2008-08-12, 08:53:04,VALID,1006.01,VALID,0,VALID,86.5496,VALID,169.65,VALID,26.4317,VALID,16,VALID,0.614453,
2008-08-12, 08:54:04,VALID,1006.01,VALID,0,VALID,85.6571,VALID,170.555,VALID,26.4512,VALID,11,VALID,0.490234,
2008-08-12, 08:55:04,VALID,1006.02,VALID,0,VALID,86.3513,VALID,171.661,VALID,26.4297,VALID,11,VALID,0.344531,
2008-08-12, 08:56:04,VALID,1006.01,VALID,0,VALID,86.2064,VALID,172.868,VALID,26.4707,VALID,80,VALID,0.525781,
2008-08-12, 08:57:04,VALID,1006.01,VALID,0,VALID,85.2909,VALID,174.175,VALID,26.4317,VALID,102,VALID,0.127344,
2008-08-12, 08:58:04,VALID,1006.03,VALID,0,VALID,85.4053,VALID,175.382,VALID,26.4317,VALID,15,VALID,1.41992,
2008-08-12, 08:59:04,VALID,1006.01,VALID,0,VALID,86.3589,VALID,176.89,VALID,26.4512,VALID,83,VALID,0.637891,
2008-08-12, 09:00:04,VALID,1006,VALID,0,VALID,85.7639,VALID,178.298,VALID,26.4317,VALID,108,VALID,0.161719,
2008-08-12, 09:01:04,VALID,1005.99,VALID,0,VALID,86.5496,VALID,179.706,VALID,26.4512,VALID,107,VALID,0.555859,
2008-08-12, 09:02:04,VALID,1006.02,VALID,0,VALID,86.0843,VALID,181.013,VALID,26.4102,VALID,83,VALID,0.803906,
2008-08-12, 09:03:04,VALID,1005.99,VALID,0,VALID,85.5045,VALID,182.421,VALID,26.4122,VALID,90,VALID,0.522656,
2008-08-12, 09:04:04,VALID,1005.98,VALID,0,VALID,85.947,VALID,183.729,VALID,26.3927,VALID,117,VALID,0.8625,
2008-08-12, 09:05:04,VALID,1006.02,VALID,0,VALID,86.5191,VALID,184.634,VALID,26.3538,VALID,71,VALID,0.885156,
2008-08-12, 09:06:04,VALID,1006.01,VALID,0,VALID,86.8319,VALID,185.941,VALID,26.3538,VALID,73,VALID,0.565234,
2008-08-12, 09:07:04,VALID,1006.02,VALID,0,VALID,85.8783,VALID,187.349,VALID,26.3538,VALID,74,VALID,1.14219,
2008-08-12, 09:08:04,VALID,1006.01,VALID,0,VALID,86.008,VALID,188.857,VALID,26.3538,VALID,71,VALID,0.683594,
2008-08-12, 09:09:04,VALID,1006.03,VALID,0,VALID,85.7639,VALID,190.466,VALID,26.3343,VALID,64,VALID,0.607422,
2008-08-12, 09:10:04,VALID,1006.01,VALID,0,VALID,86.4505,VALID,192.176,VALID,26.3733,VALID,16,VALID,0.444922,
2008-08-12, 09:11:04,VALID,1006,VALID,0,VALID,86.008,VALID,194.388,VALID,26.3947,VALID,5,VALID,1.06289,
2008-08-12, 09:12:04,VALID,1006.01,VALID,0,VALID,86.3513,VALID,196.902,VALID,26.3538,VALID,92,VALID,1.07813,
2008-08-12, 09:13:04,VALID,1006.02,VALID,0,VALID,86.1682,VALID,199.617,VALID,26.3148,VALID,88,VALID,0.664063,
2008-08-12, 09:14:04,VALID,1006.03,VALID,0,VALID,87.6024,VALID,202.936,VALID,26.3947,VALID,55,VALID,0.465234,
2008-08-12, 09:15:04,VALID,1005.98,VALID,0,VALID,86.5039,VALID,206.757,VALID,26.3538,VALID,360,VALID,1.2707,
2008-08-12, 09:16:04,VALID,1006.02,VALID,0,VALID,86.1758,VALID,210.579,VALID,26.3538,VALID,73,VALID,1.59336,
2008-08-12, 09:17:04,VALID,1006.03,VALID,0,VALID,86.5344,VALID,214.501,VALID,26.3538,VALID,42,VALID,0.940625,
2008-08-12, 09:18:04,VALID,1006.02,VALID,0,VALID,86.5725,VALID,218.724,VALID,26.3753,VALID,42,VALID,1.69453,
2008-08-12, 09:19:04,VALID,1006.03,VALID,0,VALID,86.7633,VALID,222.847,VALID,26.3538,VALID,65,VALID,1.07656,
2008-08-12, 09:20:04,VALID,1005.98,VALID,0,VALID,86.9387,VALID,226.971,VALID,26.3947,VALID,36,VALID,0.755078,
2008-08-12, 09:21:04,VALID,1006,VALID,0,VALID,86.4276,VALID,231.094,VALID,26.3947,VALID,60,VALID,1.22109,
2008-08-12, 09:22:04,VALID,1005.96,VALID,0,VALID,86.6336,VALID,235.418,VALID,26.4142,VALID,40,VALID,1.09805,
2008-08-12, 09:23:04,VALID,1005.96,VALID,0,VALID,86.4428,VALID,239.541,VALID,26.3927,VALID,42,VALID,1.99141,
2008-08-12, 09:24:04,VALID,1005.92,VALID,0,VALID,86.3818,VALID,243.362,VALID,26.4122,VALID,83,VALID,1.34922,
2008-08-12, 09:25:04,VALID,1005.92,VALID,0,VALID,86.0309,VALID,247.787,VALID,26.4317,VALID,83,VALID,1.19023,
2008-08-12, 09:26:04,VALID,1005.91,VALID,0,VALID,86.4505,VALID,252.514,VALID,26.4707,VALID,35,VALID,1.09609,
2008-08-12, 09:27:04,VALID,1005.9,VALID,0,VALID,86.3894,VALID,256.737,VALID,26.5096,VALID,34,VALID,0.767187,
2008-08-12, 09:28:04,VALID,1005.88,VALID,0,VALID,85.2756,VALID,260.559,VALID,26.5096,VALID,60,VALID,1.64688,
2008-08-12, 09:29:04,VALID,1005.89,VALID,0,VALID,86.3971,VALID,264.38,VALID,26.5681,VALID,35,VALID,0.744141,
2008-08-12, 09:30:04,VALID,1005.9,VALID,0,VALID,84.6501,VALID,267.196,VALID,26.5486,VALID,89,VALID,2.30078,
2008-08-12, 09:31:04,VALID,1005.87,VALID,0,VALID,85.535,VALID,269.106,VALID,26.5876,VALID,62,VALID,1.18086,
2008-08-12, 09:32:04,VALID,1005.87,VALID,0,VALID,85.268,VALID,270.615,VALID,26.6265,VALID,6,VALID,0.817969,
2008-08-12, 09:33:04,VALID,1005.87,VALID,0,VALID,84.9857,VALID,271.721,VALID,26.646,VALID,36,VALID,1.03516,
2008-08-12, 09:34:04,VALID,1005.83,VALID,0,VALID,84.467,VALID,272.123,VALID,26.7065,VALID,59,VALID,1.44844,
2008-08-12, 09:35:04,VALID,1005.82,VALID,0,VALID,84.2762,VALID,271.922,VALID,26.6655,VALID,81,VALID,2.07539,
2008-08-12, 09:36:04,VALID,1005.79,VALID,0,VALID,84.9781,VALID,270.715,VALID,26.7045,VALID,84,VALID,1.84922,
2008-08-12, 09:37:04,VALID,1005.81,VALID,0,VALID,84.0931,VALID,268.604,VALID,26.7239,VALID,67,VALID,1.66641,
2008-08-12, 09:38:04,VALID,1005.77,VALID,0,VALID,83.4142,VALID,266.693,VALID,26.7045,VALID,68,VALID,1.82344,
2008-08-12, 09:39:04,VALID,1005.78,VALID,0,VALID,83.994,VALID,263.676,VALID,26.7219,VALID,31,VALID,0.622656,
2008-08-12, 09:40:04,VALID,1005.79,VALID,0,VALID,84.0779,VALID,259.553,VALID,26.7804,VALID,86,VALID,1.69687,
2008-08-12, 09:41:04,VALID,1005.74,VALID,0,VALID,83.0632,VALID,255.028,VALID,26.7824,VALID,110,VALID,2.40586,
2008-08-12, 09:42:04,VALID,1005.74,VALID,0,VALID,83.9558,VALID,249.698,VALID,26.8214,VALID,42,VALID,1.21016,
2008-08-12, 09:43:04,VALID,1005.72,VALID,0,VALID,82.8039,VALID,244.569,VALID,26.8214,VALID,122,VALID,1.61367,
2008-08-12, 09:44:04,VALID,1005.78,VALID,0,VALID,83.0556,VALID,239.34,VALID,26.8798,VALID,25,VALID,0.832422,
2008-08-12, 09:45:04,VALID,1005.73,VALID,0,VALID,82.8725,VALID,234.111,VALID,26.8388,VALID,72,VALID,1.14297,
2008-08-12, 09:46:04,VALID,1005.73,VALID,0,VALID,83.0938,VALID,228.68,VALID,26.9188,VALID,343,VALID,0.458203,
2008-08-12, 09:47:04,VALID,1005.74,VALID,0,VALID,84.0016,VALID,223.35,VALID,26.9578,VALID,27,VALID,1.09844,
2008-08-12, 09:48:04,VALID,1005.75,VALID,0,VALID,82.5369,VALID,218.322,VALID,26.9578,VALID,72,VALID,1.04375,
2008-08-12, 09:49:04,VALID,1005.74,VALID,0,VALID,82.4453,VALID,213.395,VALID,26.8973,VALID,90,VALID,1.2793,
2008-08-12, 09:50:04,VALID,1005.71,VALID,0,VALID,82.6665,VALID,208.97,VALID,26.9188,VALID,93,VALID,1.98164,
2008-08-12, 09:51:04,VALID,1005.76,VALID,0,VALID,83.376,VALID,204.947,VALID,26.8993,VALID,94,VALID,1.50742,
2008-08-12, 09:52:04,VALID,1005.75,VALID,0,VALID,82.1478,VALID,201.93,VALID,26.8603,VALID,88,VALID,1.02734,
2008-08-12, 09:53:04,VALID,1005.76,VALID,0,VALID,82.575,VALID,199.517,VALID,26.8408,VALID,23,VALID,1.30938,
2008-08-12, 09:54:04,VALID,1005.76,VALID,0,VALID,83.254,VALID,198.008,VALID,26.8408,VALID,78,VALID,2.12461,
2008-08-12, 09:55:04,VALID,1005.75,VALID,0,VALID,81.9418,VALID,197.003,VALID,26.8019,VALID,104,VALID,2.23555,
2008-08-12, 09:56:04,VALID,1005.76,VALID,0,VALID,82.4072,VALID,196.802,VALID,26.8019,VALID,54,VALID,1.57227,
2008-08-12, 09:57:04,VALID,1005.75,VALID,0,VALID,82.3538,VALID,196.802,VALID,26.7609,VALID,69,VALID,1.66797,
2008-08-12, 09:58:04,VALID,1005.71,VALID,0,VALID,83.0022,VALID,197.405,VALID,26.7629,VALID,42,VALID,1.19492,
2008-08-12, 09:59:04,VALID,1005.73,VALID,0,VALID,82.1249,VALID,198.21,VALID,26.7414,VALID,95,VALID,1.15195,
2008-08-12, 10:00:04,VALID,1005.72,VALID,0,VALID,83.0938,VALID,199.215,VALID,26.683,VALID,87,VALID,1.46211,
2008-08-12, 10:01:04,VALID,1005.71,VALID,0,VALID,83.6354,VALID,200.523,VALID,26.6655,VALID,69,VALID,1.30273,
2008-08-12, 10:02:04,VALID,1005.71,VALID,0,VALID,84.0779,VALID,202.333,VALID,26.6655,VALID,93,VALID,1.35508,
2008-08-12, 10:03:04,VALID,1005.68,VALID,0,VALID,84.116,VALID,204.646,VALID,26.6655,VALID,27,VALID,1.46797,
2008-08-12, 10:04:04,VALID,1005.66,VALID,0,VALID,84.2305,VALID,207.26,VALID,26.6635,VALID,52,VALID,1.11484,
2008-08-12, 10:05:04,VALID,1005.65,VALID,0,VALID,84.5204,VALID,210.478,VALID,26.644,VALID,71,VALID,0.880078,
2008-08-12, 10:06:04,VALID,1005.62,VALID,0,VALID,84.3068,VALID,214.199,VALID,26.644,VALID,103,VALID,0.657812,
2008-08-12, 10:07:04,VALID,1005.62,VALID,0,VALID,84.4517,VALID,218.423,VALID,26.7045,VALID,38,VALID,0.7625,
2008-08-12, 10:08:04,VALID,1005.55,VALID,0,VALID,85.1917,VALID,223.25,VALID,26.7239,VALID,83,VALID,0.815625,
2008-08-12, 10:09:04,VALID,1005.6,VALID,0,VALID,84.4822,VALID,228.68,VALID,26.685,VALID,9,VALID,1.16445,
2008-08-12, 10:10:04,VALID,1005.56,VALID,0,VALID,84.7721,VALID,234.513,VALID,26.685,VALID,23,VALID,0.947656,
2008-08-12, 10:11:04,VALID,1005.56,VALID,0,VALID,84.5433,VALID,239.641,VALID,26.7045,VALID,35,VALID,0.740234,
2008-08-12, 10:12:04,VALID,1005.52,VALID,0,VALID,84.6119,VALID,246.078,VALID,26.685,VALID,83,VALID,0.864844,
2008-08-12, 10:13:04,VALID,1005.48,VALID,0,VALID,85.3748,VALID,251.307,VALID,26.7239,VALID,69,VALID,0.541406,
2008-08-12, 10:14:04,VALID,1005.44,VALID,0,VALID,84.7263,VALID,256.938,VALID,26.7239,VALID,63,VALID,1.11523,